Погода в Южном

Россия / Челябинская область     53°31′38″N   60°04′37″E
темп.,
°C
ветер,
м/с
пор.,
м/с
влажн.,
%
обл.,
%
осадки,
мм/ч
давл.,
гПа
погр.,
м
8 мая, сб
сб823:00+12ююв114499 0.0 101910
02:00+11ююв1148100 0.0 101910
05:00+11ю0048100 0.0 101910
08:00+13юв1149100 0.0 101841
11:00+17с1133100 0.0 10171412
14:00+19св0128100 0.0 10162166
17:00+18вюв1229100 0.0 10152257
20:00+16юв2241100 0.0 101521
9 мая, вс
вс923:00+14зсз2246100 0.0 101517
02:00+12ююз4652100 0.0 1015134
05:00+11сз3659100 0.0 1016117
08:00+14ссз455955 0.0 1016299
11:00+18ссв463598 0.0 10151873
14:00+19ссв453098 0.0 10142523
17:00+19с5632100 0.0 10152395
20:00+16ссв5946100 0.0 1015258
10 мая, пн
пн1023:00+12св49675 0.0 1018300
02:00+10ссв4107443 0.0 1018277
05:00+11ссв51084100 0.0 1019579
08:00+11св41083100 0.0 1021702
11:00+12с478050 0.5 1022294
14:00+19св464599 0.0 10212163
17:00+19ссз3443100 0.0 1021776
20:00+17ссв224945 0.0 102224
11 мая, вт
вт1123:00+13всв35505 0.0 102368
02:00+10вюв33555 0.0 102535
05:00+9всв2256100 0.0 102510
08:00+13вюв1147100 0.0 1026154
11:00+17юз1137100 0.0 1026751
14:00+20зсз2335100 0.0 10251454
17:00+22сз2333100 0.0 10242320
20:00+17ссв225681 0.0 102523
12 мая, ср
ср1223:00+14с611687 0.0 1027293
02:00+12с511625 0.0 1028292
05:00+9ссв5117680 0.0 1030289
08:00+12св585574 0.0 1030530
11:00+15св4539100 0.0 10301145
14:00+18с34347 0.0 10291596
17:00+19с453510 0.0 10271937
20:00+17ссв5950100 0.0 1027370